Tracking 19149 objects as of 21-Apr-2018
HD Live streaming from Space Station
objects crossing your sky now

SCOUT A R/B

Track SCOUT A R/B now!
10-day predictions


NORAD ID: 2180
Int'l Code: 1966-041B
Perigee: 843.7 km
Apogee: 957.8 km
Inclination: 90.2 °
Period: 102.9 minutes
Semi major axis: 7271 km
RCS: 0.6901 m2 (medium)
Launch date: May 19, 1966
Source: United States (US)
Launch site: AIR FORCE WESTERN TEST RANGE (AFWTR)

Note: This is a ROCKET BODY
aabbcc
Your satellite tracking list
Your tracking list is empty




NASA's NSSDC Master Catalog

Two Line Element Set (TLE):
1 02180U 66041B   18110.81456418  .00000033  00000-0  15441-4 0  9991
2 02180  90.1542  21.2707 0078473 340.6758  19.1449 14.00047182646769
Source of the keplerian elements: AFSPC